{"data":{"norad_id":59565,"intl_designator":"2024-076B","name":"STARLINK-31388","alt_names":[],"object_type":"PAYLOAD","status":"ACTIVE","operator":null,"country":"US","launch_date":"2024-04-23","launch_site_code":"AFETR","launch_vehicle":null,"mission":null,"orbit_class":"UNKNOWN","rcs_meters":null,"size_class":null,"mass_kg":null,"dimensions":null,"purposes":["comms"],"wikipedia_slug":null,"has_3d_model":false,"image_url":null,"decayed_at":null,"tle_current":{"epoch":"2026-09-21T06:47:51.236160Z","epoch_age_seconds":100545,"freshness":"FRESH","line1":"1 59565U 24076B   26264.28323190  .00000774  00000+0  37672-4 0  9993","line2":"2 59565  43.0052 344.6264 0001326 266.1462  93.9238 15.27575441136414","mean_motion":15.27575441,"eccentricity":0.0001326,"inclination_deg":43.0052,"raan_deg":344.6264,"arg_perigee_deg":266.1462,"mean_anomaly_deg":93.9238,"bstar":3.7672e-5,"rev_number":13641,"period_min":94.267030049745,"perigee_km":482.1529522732,"apogee_km":483.9725424462,"semimajor_km":6861.1997473597,"source":"CELESTRAK","updated_at":"2026-09-22T09:00:48.977164Z"}}}